Location: Pel�-Koumbol�
(14.9505°N, 3.0798°W)
Time: 12:54:59
(UTC+00:00)

Centaur D-1A AC-32 - Pass Details

Date: 17 February 2020
Orbit: 559 x 36455 km, 25.9° (Epoch: 04 April)

Event Time Altitude Azimuth Distance (km) Brightness Sun altitude
Exits shadow 06:01:17 - 306° (NW) 2,033 4.2 -9.1°
Reaches altitude 10° 06:01:26 10° 307° (NW) 1,963 4.1 -9.0°
Maximum altitude 06:05:00 50° 25° (NNE) 1,146 3.5 -8.2°
Drops below altitude 10° 06:15:51 10° 100° (E) 5,758 8.9 -5.6°
Sets 06:26:21 0° 105° (ESE) 10,008 11.5 -3.1°
